Location: Dal�� Lhota
(48.7500°N, 14.0167°E)
Time: 02:08:44
(UTC+00:00)

Lacrosse 5 rocket - Pass Details

Date: 24 September 2020
Orbit: 460 x 636 km, 57.0° (Epoch: 29 October)

Event Time Altitude Azimuth Distance (km) Brightness Sun altitude
Rises 19:13:43 0° 302° (WNW) 2,814 6.4 -22.6°
Reaches altitude 10° 19:16:05 10° 310° (NW) 1,940 5.2 -23.0°
Maximum altitude 19:20:14 38° 20° (NNE) 946 2.5 -23.6°
Enters shadow 19:20:39 37° 33° (NNE) 963 2.4 -23.7°
